Location: Hilton Head Island
(32.2163°N, 80.7526°W)
Time: 22:49:40
(UTC-05:00)

Vanguard 1 - Pass Details

Date: 20 February 2026
Orbit: 653 x 3818 km, 34.2° (Epoch: 5 March)

Event Time Altitude Azimuth Distance (km) Brightness Sun altitude
Rises 12:58:03 0° 213° (SSW) 3,510 13.5 46.8°
Reaches altitude 10° 13:00:22 10° 203° (SSW) 2,805 13.4 46.7°
Maximum altitude 13:06:33 36° 138° (SE) 2,112 12.7 46.5°
Drops below altitude 10° 13:16:56 10° 78° (ENE) 4,743 13.5 46.0°
Sets 13:22:11 0° 72° (ENE) 6,309 14.0 45.7°
